SITE: BDASe,YEAR: 2011,,,,,,
2011date,time,pzhd (cm),gw temp (C),DWT (cm),WT elev (m),,
01/01/11,0:00,260.9,13.1,107.7,1372.403,,Depth to water table:
01/01/11,0:30,260.3,13.1,108.3,1372.397,,DWT = SCL - CH - h (all values in cm)
01/01/11,1:00,260.3,13.1,108.3,1372.397,,where
01/01/11,1:30,260.0,13.1,108.6,1372.394,,SCL = sensor cable length = 516.0 cm
01/01/11,2:00,259.4,13.1,109.2,1372.388,,CH = casing height of well = 147.4 cm
01/01/11,2:30,259.7,13.1,108.9,1372.391,,h = height of water above sensor (from pzhd column)
01/01/11,3:00,259.6,13.1,109.0,1372.390,,
01/01/11,3:30,259.7,13.1,108.9,1372.391,,WT elevation:
01/01/11,4:00,259.9,13.1,108.7,1372.393,,Sensor elev = 1369.794 m asl
01/01/11,4:30,259.2,13.1,109.4,1372.386,,WT elev = sensor elev + h (from pzhd column)
01/01/11,5:00,259.6,13.1,109.0,1372.390,,
01/01/11,5:30,257.8,13.1,110.8,1372.372,,
01/01/11,6:00,257.8,13.1,110.8,1372.372,,
01/01/11,6:30,258.3,13.1,110.3,1372.377,,Dates with missing data (# 0.5 hr data points):
01/01/11,7:00,257.8,13.1,110.8,1372.372,,3/16 (3).
01/01/11,7:30,257.3,13.1,111.3,1372.367,,
01/01/11,8:00,257.9,13.1,110.7,1372.373,,Dates w/missing T data:
01/01/11,8:30,258.8,13.1,109.8,1372.382,,"Jan 20, Mar 16, May 29, Oct 17, 19, 25,"
01/01/11,9:00,259.7,13.1,108.9,1372.391,,"Nov 19, Dec 25."
01/01/11,9:30,258.8,13.1,109.8,1372.382,,
01/01/11,10:00,259.3,13.1,109.3,1372.387,,
01/01/11,10:30,260.1,13.1,108.5,1372.395,,
01/01/11,11:00,260.4,13.1,108.2,1372.398,,
01/01/11,11:30,260.5,13.1,108.1,1372.399,,
01/01/11,12:00,261.3,13.1,107.3,1372.407,,
01/01/11,12:30,262.1,13.1,106.5,1372.415,,
01/01/11,13:00,261.9,13.1,106.7,1372.413,,
01/01/11,13:30,261.8,13.1,106.8,1372.412,,
01/01/11,14:00,262.2,13.1,106.4,1372.416,,
01/01/11,14:30,262.1,13.1,106.5,1372.415,,
01/01/11,15:00,262.3,13.1,106.3,1372.417,,
01/01/11,15:30,261.9,13.1,106.7,1372.413,,
01/01/11,16:00,261.8,13.1,106.8,1372.412,,
01/01/11,16:30,262.3,13.1,106.3,1372.417,,
01/01/11,17:00,262.3,13.1,106.3,1372.417,,
01/01/11,17:30,261.7,13.1,106.9,1372.411,,
01/01/11,18:00,261.2,13.1,107.4,1372.406,,
01/01/11,18:30,260.8,13.1,107.8,1372.402,,
01/01/11,19:00,261.0,13.1,107.6,1372.404,,
01/01/11,19:30,260.6,13.1,108.0,1372.400,,
01/01/11,20:00,260.6,13.1,108.0,1372.400,,
01/01/11,20:30,260.1,13.1,108.5,1372.395,,
01/01/11,21:00,260.0,13.1,108.6,1372.394,,
01/01/11,21:30,260.3,13.1,108.3,1372.397,,
01/01/11,22:00,260.6,13.1,108.0,1372.400,,
01/01/11,22:30,260.9,13.1,107.7,1372.403,,
01/01/11,23:00,260.7,13.1,107.9,1372.401,,
01/01/11,23:30,260.8,13.1,107.8,1372.402,,
01/02/11,0:00,260.7,13.1,107.9,1372.401,,
01/02/11,0:30,261.1,13.1,107.5,1372.405,,
01/02/11,1:00,261.1,13.1,107.5,1372.405,,
01/02/11,1:30,260.9,13.1,107.7,1372.403,,
01/02/11,2:00,261.5,13.1,107.1,1372.409,,
01/02/11,2:30,261.2,13.1,107.4,1372.406,,
01/02/11,3:00,261.5,13.1,107.1,1372.409,,
01/02/11,3:30,261.4,13.1,107.2,1372.408,,
01/02/11,4:00,261.7,13.1,106.9,1372.411,,
01/02/11,4:30,261.6,13.1,107.0,1372.410,,
01/02/11,5:00,261.7,13.1,106.9,1372.411,,
01/02/11,5:30,261.6,13.1,107.0,1372.410,,
01/02/11,6:00,261.2,13.1,107.4,1372.406,,
01/02/11,6:30,261.5,13.1,107.1,1372.409,,
01/02/11,7:00,261.3,13.1,107.3,1372.407,,
01/02/11,7:30,261.5,13.1,107.1,1372.409,,
01/02/11,8:00,261.8,13.1,106.8,1372.412,,
01/02/11,8:30,261.8,13.1,106.8,1372.412,,
01/02/11,9:00,261.9,13.1,106.7,1372.413,,
01/02/11,9:30,261.6,13.1,107.0,1372.410,,
01/02/11,10:00,260.9,13.1,107.7,1372.403,,
01/02/11,10:30,261.3,13.1,107.3,1372.407,,
01/02/11,11:00,261.5,13.1,107.1,1372.409,,
01/02/11,11:30,261.8,13.1,106.8,1372.412,,
01/02/11,12:00,262.0,13.1,106.6,1372.414,,
01/02/11,12:30,262.4,13.1,106.2,1372.418,,
01/02/11,13:00,262.7,13.1,105.9,1372.421,,
01/02/11,13:30,262.3,13.1,106.3,1372.417,,
01/02/11,14:00,261.9,13.1,106.7,1372.413,,
01/02/11,14:30,262.2,13.1,106.4,1372.416,,
01/02/11,15:00,262.2,13.1,106.4,1372.416,,
01/02/11,15:30,262.4,13.1,106.2,1372.418,,
01/02/11,16:00,262.6,13.1,106.0,1372.420,,
01/02/11,16:30,262.6,13.1,106.0,1372.420,,
01/02/11,17:00,262.7,13.1,105.9,1372.421,,
01/02/11,17:30,262.3,13.0,106.3,1372.417,,
01/02/11,18:00,261.6,13.0,107.0,1372.410,,
01/02/11,18:30,261.9,13.0,106.7,1372.413,,
01/02/11,19:00,261.6,13.1,107.0,1372.410,,
01/02/11,19:30,261.5,13.1,107.1,1372.409,,
01/02/11,20:00,261.7,13.0,106.9,1372.411,,
01/02/11,20:30,262.0,13.1,106.6,1372.414,,
01/02/11,21:00,262.3,13.1,106.3,1372.417,,
01/02/11,21:30,261.7,13.1,106.9,1372.411,,
01/02/11,22:00,262.1,13.1,106.5,1372.415,,
01/02/11,22:30,261.5,13.1,107.1,1372.409,,
01/02/11,23:00,262.1,13.1,106.5,1372.415,,
01/02/11,23:30,261.5,13.0,107.1,1372.409,,
01/03/11,0:00,261.9,13.0,106.7,1372.413,,
01/03/11,0:30,261.7,13.1,106.9,1372.411,,
01/03/11,1:00,261.9,13.1,106.7,1372.413,,
01/03/11,1:30,262.1,13.1,106.5,1372.415,,
01/03/11,2:00,262.1,13.1,106.5,1372.415,,
01/03/11,2:30,261.8,13.1,106.8,1372.412,,
01/03/11,3:00,261.7,13.1,106.9,1372.411,,
01/03/11,3:30,262.0,13.1,106.6,1372.414,,
01/03/11,4:00,262.3,13.1,106.3,1372.417,,
01/03/11,4:30,262.0,13.0,106.6,1372.414,,
01/03/11,5:00,261.9,13.1,106.7,1372.413,,
01/03/11,5:30,262.0,13.1,106.6,1372.414,,
01/03/11,6:00,262.2,13.0,106.4,1372.416,,
01/03/11,6:30,261.7,13.0,106.9,1372.411,,
01/03/11,7:00,261.8,13.0,106.8,1372.412,,
01/03/11,7:30,261.8,13.0,106.8,1372.412,,
01/03/11,8:00,261.9,13.1,106.7,1372.413,,
01/03/11,8:30,261.9,13.1,106.7,1372.413,,
01/03/11,9:00,261.1,13.1,107.5,1372.405,,
01/03/11,9:30,261.2,13.1,107.4,1372.406,,
01/03/11,10:00,261.5,13.0,107.1,1372.409,,
01/03/11,10:30,261.7,13.0,106.9,1372.411,,
01/03/11,11:00,262.1,13.1,106.5,1372.415,,
01/03/11,11:30,262.2,13.0,106.4,1372.416,,
01/03/11,12:00,262.3,13.0,106.3,1372.417,,
01/03/11,12:30,262.7,13.0,105.9,1372.421,,
01/03/11,13:00,262.4,13.1,106.2,1372.418,,
01/03/11,13:30,262.4,13.1,106.2,1372.418,,
01/03/11,14:00,262.8,13.1,105.8,1372.422,,
01/03/11,14:30,262.7,13.0,105.9,1372.421,,
01/03/11,15:00,262.3,13.0,106.3,1372.417,,
01/03/11,15:30,262.4,13.1,106.2,1372.418,,
01/03/11,16:00,262.4,13.0,106.2,1372.418,,
01/03/11,16:30,262.7,13.0,105.9,1372.421,,
01/03/11,17:00,262.3,13.1,106.3,1372.417,,
01/03/11,17:30,262.0,13.0,106.6,1372.414,,
01/03/11,18:00,261.1,13.1,107.5,1372.405,,
01/03/11,18:30,261.3,13.0,107.3,1372.407,,
01/03/11,19:00,261.8,13.1,106.8,1372.412,,
01/03/11,19:30,261.5,13.1,107.1,1372.409,,
01/03/11,20:00,261.4,13.0,107.2,1372.408,,
01/03/11,20:30,261.1,13.1,107.5,1372.405,,
01/03/11,21:00,261.3,13.0,107.3,1372.407,,
01/03/11,21:30,261.8,13.1,106.8,1372.412,,
01/03/11,22:00,261.2,13.1,107.4,1372.406,,
01/03/11,22:30,261.2,13.0,107.4,1372.406,,
01/03/11,23:00,261.5,13.1,107.1,1372.409,,
01/03/11,23:30,260.6,13.0,108.0,1372.400,,
01/04/11,0:00,261.5,13.1,107.1,1372.409,,
01/04/11,0:30,260.9,13.0,107.7,1372.403,,
01/04/11,1:00,261.4,13.0,107.2,1372.408,,
01/04/11,1:30,261.1,13.1,107.5,1372.405,,
01/04/11,2:00,260.9,13.0,107.7,1372.403,,
01/04/11,2:30,261.2,13.0,107.4,1372.406,,
01/04/11,3:00,261.0,13.0,107.6,1372.404,,
01/04/11,3:30,261.0,13.0,107.6,1372.404,,
01/04/11,4:00,260.7,13.0,107.9,1372.401,,
01/04/11,4:30,260.8,13.0,107.8,1372.402,,
01/04/11,5:00,260.9,13.0,107.7,1372.403,,
01/04/11,5:30,260.6,13.0,108.0,1372.400,,
01/04/11,6:00,260.7,13.0,107.9,1372.401,,
01/04/11,6:30,261.4,13.0,107.2,1372.408,,
01/04/11,7:00,261.5,13.0,107.1,1372.409,,
01/04/11,7:30,261.1,13.0,107.5,1372.405,,
01/04/11,8:00,261.3,13.0,107.3,1372.407,,
01/04/11,8:30,261.4,13.1,107.2,1372.408,,
01/04/11,9:00,261.2,13.0,107.4,1372.406,,
01/04/11,9:30,260.7,13.0,107.9,1372.401,,
01/04/11,10:00,260.4,13.1,108.2,1372.398,,
01/04/11,10:30,260.8,13.1,107.8,1372.402,,
01/04/11,11:00,261.1,13.0,107.5,1372.405,,
01/04/11,11:30,261.3,13.0,107.3,1372.407,,
01/04/11,12:00,261.5,13.0,107.1,1372.409,,
01/04/11,12:30,261.8,13.0,106.8,1372.412,,
01/04/11,13:00,261.5,13.1,107.1,1372.409,,
01/04/11,13:30,261.9,13.0,106.7,1372.413,,
01/04/11,14:00,261.6,13.0,107.0,1372.410,,
01/04/11,14:30,262.0,13.0,106.6,1372.414,,
01/04/11,15:00,261.5,13.0,107.1,1372.409,,
01/04/11,15:30,261.2,13.0,107.4,1372.406,,
01/04/11,16:00,261.7,13.0,106.9,1372.411,,
01/04/11,16:30,260.9,13.0,107.7,1372.403,,
01/04/11,17:00,261.3,13.0,107.3,1372.407,,
01/04/11,17:30,261.2,13.0,107.4,1372.406,,
01/04/11,18:00,260.6,13.0,108.0,1372.400,,
01/04/11,18:30,261.1,13.0,107.5,1372.405,,
01/04/11,19:00,260.8,13.0,107.8,1372.402,,
01/04/11,19:30,260.7,13.0,107.9,1372.401,,
01/04/11,20:00,260.6,13.0,108.0,1372.400,,
01/04/11,20:30,260.5,13.0,108.1,1372.399,,
01/04/11,21:00,261.0,13.0,107.6,1372.404,,
01/04/11,21:30,260.0,13.0,108.6,1372.394,,
01/04/11,22:00,259.6,13.0,109.0,1372.390,,
01/04/11,22:30,259.6,13.0,109.0,1372.390,,
01/04/11,23:00,260.0,13.0,108.6,1372.394,,
01/04/11,23:30,260.1,13.0,108.5,1372.395,,
01/05/11,0:00,260.3,13.1,108.3,1372.397,,
01/05/11,0:30,260.2,13.1,108.4,1372.396,,
01/05/11,1:00,260.3,13.0,108.3,1372.397,,
01/05/11,1:30,260.4,13.0,108.2,1372.398,,
01/05/11,2:00,260.7,13.0,107.9,1372.401,,
01/05/11,2:30,260.3,13.0,108.3,1372.397,,
01/05/11,3:00,260.6,13.0,108.0,1372.400,,
01/05/11,3:30,261.1,13.1,107.5,1372.405,,
01/05/11,4:00,260.6,13.0,108.0,1372.400,,
01/05/11,4:30,260.8,13.0,107.8,1372.402,,
01/05/11,5:00,260.6,13.0,108.0,1372.400,,
01/05/11,5:30,260.6,13.0,108.0,1372.400,,
01/05/11,6:00,260.3,13.0,108.3,1372.397,,
01/05/11,6:30,259.7,13.0,108.9,1372.391,,
01/05/11,7:00,260.3,13.0,108.3,1372.397,,
01/05/11,7:30,259.3,13.1,109.3,1372.387,,
01/05/11,8:00,259.7,13.0,108.9,1372.391,,
01/05/11,8:30,259.6,13.0,109.0,1372.390,,
01/05/11,9:00,260.2,13.1,108.4,1372.396,,
01/05/11,9:30,259.3,13.0,109.3,1372.387,,
01/05/11,10:00,259.6,13.0,109.0,1372.390,,
01/05/11,10:30,259.7,13.0,108.9,1372.391,,
01/05/11,11:00,260.3,13.1,108.3,1372.397,,
01/05/11,11:30,260.8,13.0,107.8,1372.402,,
01/05/11,12:00,261.1,13.0,107.5,1372.405,,
01/05/11,12:30,261.2,13.0,107.4,1372.406,,
01/05/11,13:00,261.5,13.0,107.1,1372.409,,
01/05/11,13:30,261.8,13.0,106.8,1372.412,,
01/05/11,14:00,261.6,13.0,107.0,1372.410,,
01/05/11,14:30,261.9,13.0,106.7,1372.413,,
01/05/11,15:00,261.2,13.0,107.4,1372.406,,
01/05/11,15:30,261.3,12.9,107.3,1372.407,,
01/05/11,16:00,261.2,13.0,107.4,1372.406,,
01/05/11,16:30,261.5,13.0,107.1,1372.409,,
01/05/11,17:00,261.2,13.0,107.4,1372.406,,
01/05/11,17:30,261.5,13.0,107.1,1372.409,,
01/05/11,18:00,260.8,13.0,107.8,1372.402,,
01/05/11,18:30,260.7,13.0,107.9,1372.401,,
01/05/11,19:00,260.7,13.0,107.9,1372.401,,
01/05/11,19:30,260.7,13.0,107.9,1372.401,,
01/05/11,20:00,260.6,13.0,108.0,1372.400,,
01/05/11,20:30,260.4,13.0,108.2,1372.398,,
01/05/11,21:00,260.4,13.0,108.2,1372.398,,
01/05/11,21:30,261.0,13.0,107.6,1372.404,,
01/05/11,22:00,261.1,13.0,107.5,1372.405,,
01/05/11,22:30,260.8,13.0,107.8,1372.402,,
01/05/11,23:00,261.0,13.0,107.6,1372.404,,
01/05/11,23:30,260.9,13.0,107.7,1372.403,,
01/06/11,0:00,260.8,13.0,107.8,1372.402,,
01/06/11,0:30,260.7,13.0,107.9,1372.401,,
01/06/11,1:00,260.8,13.0,107.8,1372.402,,
01/06/11,1:30,260.7,13.0,107.9,1372.401,,
01/06/11,2:00,260.9,13.0,107.7,1372.403,,
01/06/11,2:30,260.6,13.0,108.0,1372.400,,
01/06/11,3:00,261.1,13.0,107.5,1372.405,,
01/06/11,3:30,261.1,13.0,107.5,1372.405,,
01/06/11,4:00,261.3,13.0,107.3,1372.407,,
01/06/11,4:30,261.2,13.0,107.4,1372.406,,
01/06/11,5:00,261.6,13.0,107.0,1372.410,,
01/06/11,5:30,260.9,13.0,107.7,1372.403,,
01/06/11,6:00,261.7,12.9,106.9,1372.411,,
01/06/11,6:30,261.2,13.0,107.4,1372.406,,
01/06/11,7:00,261.5,13.0,107.1,1372.409,,
01/06/11,7:30,261.3,13.0,107.3,1372.407,,
01/06/11,8:00,261.5,12.9,107.1,1372.409,,
01/06/11,8:30,261.3,13.0,107.3,1372.407,,
01/06/11,9:00,261.0,13.0,107.6,1372.404,,
01/06/11,9:30,261.0,13.0,107.6,1372.404,,
01/06/11,10:00,261.0,13.0,107.6,1372.404,,
01/06/11,10:30,260.7,13.0,107.9,1372.401,,
01/06/11,11:00,260.8,13.0,107.8,1372.402,,
01/06/11,11:30,261.7,13.0,106.9,1372.411,,
01/06/11,12:00,261.4,12.9,107.2,1372.408,,
01/06/11,12:30,261.1,13.0,107.5,1372.405,,
01/06/11,13:00,261.2,13.0,107.4,1372.406,,
01/06/11,13:30,261.3,12.9,107.3,1372.407,,
01/06/11,14:00,261.5,13.0,107.1,1372.409,,
01/06/11,14:30,261.5,13.0,107.1,1372.409,,
01/06/11,15:00,261.6,13.0,107.0,1372.410,,
01/06/11,15:30,261.1,12.9,107.5,1372.405,,
01/06/11,16:00,261.6,12.9,107.0,1372.410,,
01/06/11,16:30,261.4,12.9,107.2,1372.408,,
01/06/11,17:00,261.8,13.0,106.8,1372.412,,
01/06/11,17:30,261.7,13.0,106.9,1372.411,,
01/06/11,18:00,260.8,13.0,107.8,1372.402,,
01/06/11,18:30,260.8,13.0,107.8,1372.402,,
01/06/11,19:00,261.3,12.9,107.3,1372.407,,
01/06/11,19:30,260.9,13.0,107.7,1372.403,,
01/06/11,20:00,260.7,12.9,107.9,1372.401,,
01/06/11,20:30,260.9,12.9,107.7,1372.403,,
01/06/11,21:00,260.5,13.0,108.1,1372.399,,
01/06/11,21:30,261.2,13.0,107.4,1372.406,,
01/06/11,22:00,261.3,13.0,107.3,1372.407,,
01/06/11,22:30,261.0,12.9,107.6,1372.404,,
01/06/11,23:00,261.1,13.0,107.5,1372.405,,
01/06/11,23:30,261.4,12.9,107.2,1372.408,,
01/07/11,0:00,261.4,13.0,107.2,1372.408,,
01/07/11,0:30,261.9,12.9,106.7,1372.413,,
01/07/11,1:00,261.6,12.9,107.0,1372.410,,
01/07/11,1:30,261.7,12.9,106.9,1372.411,,
01/07/11,2:00,261.9,12.9,106.7,1372.413,,
01/07/11,2:30,261.6,13.0,107.0,1372.410,,
01/07/11,3:00,261.8,12.9,106.8,1372.412,,
01/07/11,3:30,261.4,13.0,107.2,1372.408,,
01/07/11,4:00,261.1,13.0,107.5,1372.405,,
01/07/11,4:30,261.0,13.0,107.6,1372.404,,
01/07/11,5:00,261.1,13.0,107.5,1372.405,,
01/07/11,5:30,261.7,13.0,106.9,1372.411,,
01/07/11,6:00,262.0,12.9,106.6,1372.414,,
01/07/11,6:30,262.0,12.9,106.6,1372.414,,
01/07/11,7:00,262.0,12.9,106.6,1372.414,,
01/07/11,7:30,261.8,13.0,106.8,1372.412,,
01/07/11,8:00,261.8,12.9,106.8,1372.412,,
01/07/11,8:30,261.4,12.9,107.2,1372.408,,
01/07/11,9:00,261.2,12.9,107.4,1372.406,,
01/07/11,9:30,260.9,13.0,107.7,1372.403,,
01/07/11,10:00,261.0,12.9,107.6,1372.404,,
01/07/11,10:30,261.0,13.0,107.6,1372.404,,
01/07/11,11:00,261.2,13.0,107.4,1372.406,,
01/07/11,11:30,261.4,13.0,107.2,1372.408,,
01/07/11,12:00,261.4,13.0,107.2,1372.408,,
01/07/11,12:30,261.5,12.9,107.1,1372.409,,
01/07/11,13:00,261.3,12.9,107.3,1372.407,,
01/07/11,13:30,261.8,12.9,106.8,1372.412,,
01/07/11,14:00,261.6,12.9,107.0,1372.410,,
01/07/11,14:30,262.0,13.0,106.6,1372.414,,
01/07/11,15:00,261.8,13.0,106.8,1372.412,,
01/07/11,15:30,261.5,13.0,107.1,1372.409,,
01/07/11,16:00,261.8,13.0,106.8,1372.412,,
01/07/11,16:30,261.5,13.0,107.1,1372.409,,
01/07/11,17:00,261.6,13.0,107.0,1372.410,,
01/07/11,17:30,261.5,12.9,107.1,1372.409,,
01/07/11,18:00,260.8,12.9,107.8,1372.402,,
01/07/11,18:30,261.0,12.9,107.6,1372.404,,
01/07/11,19:00,260.5,12.9,108.1,1372.399,,
01/07/11,19:30,260.7,12.9,107.9,1372.401,,
01/07/11,20:00,261.2,12.9,107.4,1372.406,,
01/07/11,20:30,261.2,12.9,107.4,1372.406,,
01/07/11,21:00,260.7,13.0,107.9,1372.401,,
01/07/11,21:30,260.6,12.9,108.0,1372.400,,
01/07/11,22:00,260.9,12.9,107.7,1372.403,,
01/07/11,22:30,261.1,13.0,107.5,1372.405,,
01/07/11,23:00,260.6,13.0,108.0,1372.400,,
01/07/11,23:30,261.1,12.9,107.5,1372.405,,
01/08/11,0:00,260.4,13.0,108.2,1372.398,,
01/08/11,0:30,261.0,13.0,107.6,1372.404,,
01/08/11,1:00,261.7,12.9,106.9,1372.411,,
01/08/11,1:30,261.5,12.9,107.1,1372.409,,
01/08/11,2:00,261.6,13.0,107.0,1372.410,,
01/08/11,2:30,261.4,12.9,107.2,1372.408,,
01/08/11,3:00,261.3,12.9,107.3,1372.407,,
01/08/11,3:30,261.1,13.0,107.5,1372.405,,
01/08/11,4:00,261.3,13.0,107.3,1372.407,,
01/08/11,4:30,261.1,12.9,107.5,1372.405,,
01/08/11,5:00,261.1,12.9,107.5,1372.405,,
01/08/11,5:30,261.2,12.9,107.4,1372.406,,
01/08/11,6:00,261.8,12.9,106.8,1372.412,,
01/08/11,6:30,261.4,13.0,107.2,1372.408,,
01/08/11,7:00,261.4,13.0,107.2,1372.408,,
01/08/11,7:30,261.5,12.9,107.1,1372.409,,
01/08/11,8:00,261.4,12.9,107.2,1372.408,,
01/08/11,8:30,261.7,12.9,106.9,1372.411,,
01/08/11,9:00,261.2,12.9,107.4,1372.406,,
01/08/11,9:30,260.4,12.9,108.2,1372.398,,
01/08/11,10:00,260.9,13.0,107.7,1372.403,,
01/08/11,10:30,260.8,13.0,107.8,1372.402,,
01/08/11,11:00,260.8,13.0,107.8,1372.402,,
01/08/11,11:30,261.6,12.9,107.0,1372.410,,
01/08/11,12:00,261.4,12.9,107.2,1372.408,,
01/08/11,12:30,261.6,12.9,107.0,1372.410,,
01/08/11,13:00,261.9,13.0,106.7,1372.413,,
01/08/11,13:30,261.8,12.9,106.8,1372.412,,
01/08/11,14:00,261.7,12.9,106.9,1372.411,,
01/08/11,14:30,261.3,12.9,107.3,1372.407,,
01/08/11,15:00,260.9,12.9,107.7,1372.403,,
01/08/11,15:30,261.5,12.9,107.1,1372.409,,
01/08/11,16:00,260.9,12.9,107.7,1372.403,,
01/08/11,16:30,260.8,12.9,107.8,1372.402,,
01/08/11,17:00,261.2,12.9,107.4,1372.406,,
01/08/11,17:30,261.4,12.9,107.2,1372.408,,
01/08/11,18:00,260.5,12.9,108.1,1372.399,,
01/08/11,18:30,260.5,12.8,108.1,1372.399,,
01/08/11,19:00,260.2,12.9,108.4,1372.396,,
01/08/11,19:30,260.3,12.9,108.3,1372.397,,
01/08/11,20:00,260.4,12.9,108.2,1372.398,,
01/08/11,20:30,260.3,12.9,108.3,1372.397,,
01/08/11,21:00,259.6,12.9,109.0,1372.390,,
01/08/11,21:30,259.9,12.9,108.7,1372.393,,
01/08/11,22:00,259.8,12.9,108.8,1372.392,,
01/08/11,22:30,260.0,12.9,108.6,1372.394,,
01/08/11,23:00,259.8,12.9,108.8,1372.392,,
01/08/11,23:30,260.1,12.9,108.5,1372.395,,
01/09/11,0:00,260.0,12.9,108.6,1372.394,,
01/09/11,0:30,260.0,12.9,108.6,1372.394,,
01/09/11,1:00,260.2,13.0,108.4,1372.396,,
01/09/11,1:30,260.1,12.9,108.5,1372.395,,
01/09/11,2:00,260.5,12.9,108.1,1372.399,,
01/09/11,2:30,259.6,12.9,109.0,1372.390,,
01/09/11,3:00,259.4,12.9,109.2,1372.388,,
01/09/11,3:30,259.6,12.9,109.0,1372.390,,
01/09/11,4:00,259.7,12.8,108.9,1372.391,,
01/09/11,4:30,260.0,12.9,108.6,1372.394,,
01/09/11,5:00,259.9,12.9,108.7,1372.393,,
01/09/11,5:30,259.7,12.9,108.9,1372.391,,
01/09/11,6:00,259.5,12.8,109.1,1372.389,,
01/09/11,6:30,259.8,12.9,108.8,1372.392,,
01/09/11,7:00,259.7,12.9,108.9,1372.391,,
01/09/11,7:30,259.7,12.9,108.9,1372.391,,
01/09/11,8:00,259.5,12.9,109.1,1372.389,,
01/09/11,8:30,259.1,12.9,109.5,1372.385,,
01/09/11,9:00,259.1,12.9,109.5,1372.385,,
01/09/11,9:30,259.0,12.9,109.6,1372.384,,
01/09/11,10:00,259.2,12.9,109.4,1372.386,,
01/09/11,10:30,259.1,12.9,109.5,1372.385,,
01/09/11,11:00,259.8,12.9,108.8,1372.392,,
01/09/11,11:30,259.8,12.9,108.8,1372.392,,
01/09/11,12:00,260.0,12.9,108.6,1372.394,,
01/09/11,12:30,260.3,12.9,108.3,1372.397,,
01/09/11,13:00,260.0,12.9,108.6,1372.394,,
01/09/11,13:30,260.0,12.9,108.6,1372.394,,
01/09/11,14:00,260.1,12.9,108.5,1372.395,,
01/09/11,14:30,259.7,12.9,108.9,1372.391,,
01/09/11,15:00,259.9,12.9,108.7,1372.393,,
01/09/11,15:30,259.6,13.0,109.1,1372.390,,
01/09/11,16:00,259.6,12.9,109.0,1372.390,,
01/09/11,16:30,259.4,12.9,109.2,1372.388,,
01/09/11,17:00,259.4,12.8,109.2,1372.388,,
01/09/11,17:30,259.8,12.9,108.8,1372.392,,
01/09/11,18:00,259.5,12.9,109.1,1372.389,,
01/09/11,18:30,259.4,12.9,109.2,1372.388,,
01/09/11,19:00,259.1,12.9,109.5,1372.385,,
01/09/11,19:30,259.0,12.9,109.6,1372.384,,
01/09/11,20:00,258.7,12.9,109.9,1372.381,,
01/09/11,20:30,259.2,12.9,109.4,1372.386,,
01/09/11,21:00,259.4,12.9,109.2,1372.388,,
01/09/11,21:30,259.4,12.9,109.2,1372.388,,
01/09/11,22:00,259.3,12.9,109.3,1372.387,,
01/09/11,22:30,259.8,12.9,108.8,1372.392,,
01/09/11,23:00,259.3,12.9,109.3,1372.387,,
01/09/11,23:30,259.8,12.9,108.8,1372.392,,
01/10/11,0:00,259.6,12.9,109.0,1372.390,,
01/10/11,0:30,259.8,12.9,108.8,1372.392,,
01/10/11,1:00,259.4,12.8,109.2,1372.388,,
01/10/11,1:30,259.3,12.9,109.3,1372.387,,
01/10/11,2:00,259.3,12.9,109.3,1372.387,,
01/10/11,2:30,259.5,12.9,109.1,1372.389,,
01/10/11,3:00,259.8,12.9,108.8,1372.392,,
01/10/11,3:30,259.4,12.9,109.2,1372.388,,
01/10/11,4:00,259.1,12.9,109.5,1372.385,,
01/10/11,4:30,259.0,12.9,109.6,1372.384,,
01/10/11,5:00,259.0,12.9,109.6,1372.384,,
01/10/11,5:30,258.8,12.9,109.8,1372.382,,
01/10/11,6:00,259.0,12.8,109.6,1372.384,,
01/10/11,6:30,259.4,12.9,109.2,1372.388,,
01/10/11,7:00,259.3,12.9,109.3,1372.387,,
01/10/11,7:30,259.3,12.9,109.3,1372.387,,
01/10/11,8:00,259.2,12.9,109.4,1372.386,,
01/10/11,8:30,259.3,12.8,109.3,1372.387,,
01/10/11,9:00,259.0,12.9,109.6,1372.384,,
01/10/11,9:30,258.6,12.8,110.0,1372.380,,
01/10/11,10:00,258.5,12.8,110.1,1372.379,,
01/10/11,10:30,258.9,12.8,109.7,1372.383,,
01/10/11,11:00,258.8,12.8,109.8,1372.382,,
01/10/11,11:30,259.1,12.9,109.5,1372.385,,
01/10/11,12:00,259.4,12.9,109.2,1372.388,,
01/10/11,12:30,259.4,12.8,109.2,1372.388,,
01/10/11,13:00,259.7,12.9,108.9,1372.391,,
01/10/11,13:30,259.7,12.8,108.9,1372.391,,
01/10/11,14:00,259.8,12.8,108.8,1372.392,,
01/10/11,14:30,259.7,12.8,108.9,1372.391,,
01/10/11,15:00,259.5,12.8,109.1,1372.389,,
01/10/11,15:30,259.8,12.8,108.8,1372.392,,
01/10/11,16:00,259.5,12.8,109.1,1372.389,,
01/10/11,16:30,259.2,12.8,109.4,1372.386,,
01/10/11,17:00,259.1,12.8,109.5,1372.385,,
01/10/11,17:30,259.2,12.9,109.4,1372.386,,
01/10/11,18:00,258.7,12.8,109.9,1372.381,,
01/10/11,18:30,257.9,12.9,110.7,1372.373,,
01/10/11,19:00,257.9,12.9,110.7,1372.373,,
01/10/11,19:30,258.4,12.8,110.2,1372.378,,
01/10/11,20:00,257.7,12.8,110.9,1372.371,,
01/10/11,20:30,258.6,12.9,110.0,1372.380,,
01/10/11,21:00,257.5,12.9,111.1,1372.369,,
01/10/11,21:30,258.3,12.8,110.3,1372.377,,
01/10/11,22:00,258.1,12.8,110.5,1372.375,,
01/10/11,22:30,257.6,12.8,111.0,1372.370,,
01/10/11,23:00,257.9,12.9,110.7,1372.373,,
01/10/11,23:30,257.9,12.9,110.7,1372.373,,
01/11/11,0:00,258.2,12.8,110.4,1372.376,,
01/11/11,0:30,258.1,12.8,110.5,1372.375,,
01/11/11,1:00,257.7,12.8,110.9,1372.371,,
01/11/11,1:30,257.7,12.8,110.9,1372.371,,
01/11/11,2:00,257.8,12.8,110.8,1372.372,,
01/11/11,2:30,257.7,12.9,110.9,1372.371,,
01/11/11,3:00,257.6,12.8,111.0,1372.370,,
01/11/11,3:30,258.3,12.8,110.3,1372.377,,
01/11/11,4:00,258.3,12.9,110.3,1372.377,,
01/11/11,4:30,258.5,12.9,110.1,1372.379,,
01/11/11,5:00,258.6,12.8,110.0,1372.380,,
01/11/11,5:30,258.2,12.9,110.4,1372.376,,
01/11/11,6:00,258.0,12.9,110.6,1372.374,,
01/11/11,6:30,257.8,12.8,110.8,1372.372,,
01/11/11,7:00,257.9,12.8,110.7,1372.373,,
01/11/11,7:30,257.6,12.8,111.0,1372.370,,
01/11/11,8:00,257.9,12.8,110.7,1372.373,,
01/11/11,8:30,258.4,12.9,110.2,1372.378,,
01/11/11,9:00,258.1,12.8,110.5,1372.375,,
01/11/11,9:30,258.5,12.8,110.1,1372.379,,
01/11/11,10:00,258.4,12.9,110.2,1372.378,,
01/11/11,10:30,258.2,12.8,110.4,1372.376,,
01/11/11,11:00,258.6,12.8,110.0,1372.380,,
01/11/11,11:30,258.5,12.8,110.1,1372.379,,
01/11/11,12:00,258.6,12.8,110.0,1372.380,,
01/11/11,12:30,258.7,12.8,109.9,1372.381,,
01/11/11,13:00,259.5,12.8,109.1,1372.389,,
01/11/11,13:30,259.2,12.8,109.4,1372.386,,
01/11/11,14:00,259.4,12.9,109.2,1372.388,,
01/11/11,14:30,259.1,12.9,109.5,1372.385,,
01/11/11,15:00,259.0,12.8,109.6,1372.384,,
01/11/11,15:30,259.3,12.8,109.3,1372.387,,
01/11/11,16:00,259.1,12.9,109.5,1372.385,,
01/11/11,16:30,259.3,12.8,109.3,1372.387,,
01/11/11,17:00,259.6,12.8,109.0,1372.390,,
01/11/11,17:30,259.3,12.8,109.3,1372.387,,
01/11/11,18:00,259.5,12.8,109.1,1372.389,,
01/11/11,18:30,259.5,12.8,109.1,1372.389,,
01/11/11,19:00,259.1,12.8,109.5,1372.385,,
01/11/11,19:30,259.0,12.8,109.6,1372.384,,
01/11/11,20:00,259.0,12.8,109.6,1372.384,,
01/11/11,20:30,259.5,12.8,109.1,1372.389,,
01/11/11,21:00,259.1,12.8,109.5,1372.385,,
01/11/11,21:30,259.4,12.8,109.2,1372.388,,
01/11/11,22:00,259.5,12.9,109.1,1372.389,,
01/11/11,22:30,259.6,12.8,109.0,1372.390,,
01/11/11,23:00,259.8,12.8,108.8,1372.392,,
01/11/11,23:30,259.7,12.8,108.9,1372.391,,
01/12/11,0:00,259.7,12.8,108.9,1372.391,,
01/12/11,0:30,259.9,12.8,108.7,1372.393,,
01/12/11,1:00,259.8,12.9,108.8,1372.392,,
01/12/11,1:30,259.9,12.9,108.7,1372.393,,
01/12/11,2:00,260.0,12.9,108.6,1372.394,,
01/12/11,2:30,260.3,12.8,108.3,1372.397,,
01/12/11,3:00,259.9,12.8,108.7,1372.393,,
01/12/11,3:30,260.6,12.8,108.0,1372.400,,
01/12/11,4:00,260.4,12.8,108.2,1372.398,,
01/12/11,4:30,259.8,12.8,108.8,1372.392,,
01/12/11,5:00,260.4,12.9,108.2,1372.398,,